Regional Weather Roundup
Issued by NWS Northern Indiana

Home | Current Version | Previous Version | Graphics & Text | Print | Product List | Glossary On
Versions: 1 2 3 4 5 6 7 8 9 10 11 12 13 14 15 16 17 18 19 20 21 22 23 24 25 26 27 28 29 30 31 32 33 34 35 36 37 38 39 40 41 42 43 44 45 46 47 48 49 50
000
ASUS43 KIWX 050700
RWRIWX

KIWX WEATHER ROUNDUP
NATIONAL WEATHER SERVICE NORTHERN INDIANA
200 AM EST THU MAR 05 2015

NOTE: "FAIR" INDICATES FEW OR NO CLOUDS BELOW 12,000 FEET WITH NO
SIGNIFICANT WEATHER AND/OR OBSTRUCTIONS TO VISIBILITY.

* THESE STATIONS ARE NOT UNDER NWS QUALITY CONTROL. THEY ALSO MAY NOT
  REPORT WEATHER SUCH AS PRECIPITATION OR FOG.

INZ001>027-050800-
NORTHERN INDIANA

CITY           SKY/WX    TMP DP  RH WIND       PRES   REMARKS
SOUTH BEND     CLOUDY    17   6  62 NW7       30.32R WCI   8
GOSHEN         MOCLDY    15   5  64 N10       30.30R WCI   2
MONTICELLO*    CLOUDY    15   8  72 NW9       30.32R WCI   3
ANGOLA*        CLEAR     12   1  62 N9        30.24F WCI   0
FORT WAYNE     CLOUDY    18   7  62 N8        30.29S WCI   8
PERU/GRISSOM   CLOUDY    18   5  57 NW7       30.28R WCI   9

$$
INZ028>050-050800-
CENTRAL INDIANA

CITY           SKY/WX    TMP DP  RH WIND       PRES   REMARKS
LAFAYETTE      MOCLDY    14   4  64 NW13      30.34R WCI   0
KOKOMO*          N/A    N/A N/A N/A MISG        N/A
MUNCIE*        CLOUDY    19   9  65 N8        30.26S WCI   9
INDIANAPOLIS   CLOUDY    18   8  65 N9        30.29R WCI   7

$$
MIZ043>046-050>051-056>058-064>065-071>073-077>080-050800-
SOUTHWEST LOWER MICHIGAN

CITY           SKY/WX    TMP DP  RH WIND       PRES   REMARKS
BATTLE CREEK   PTCLDY    11  -3  53 N6        30.28R WCI   1
BENTON HARBOR  MOCLDY    15   5  64 VRB5      30.31R WCI   8
COLDWATER*     MOCLDY    13  -2  51 N7        30.28R WCI   2
HILLSDALE*     CLOUDY    13  -2  51 N8        30.23F WCI   1
HOLLAND        PTCLDY    12   4  70 N5        30.32R WCI   4
GRAND RAPIDS   CLEAR      9  -3  58 NW8       30.29S WCI  -3
KALAMAZOO      PTCLDY     9  -1  64 N5        30.29S WCI   1
STURGIS*       MOCLDY    12   1  62 N7        30.28R WCI   2
THREE RIVERS*  FAIR      13   1  59 N3        30.30R

$$
OHZ001>008-015>018-024>025-050800-
NORTHWEST OHIO

CITY           SKY/WX    TMP DP  RH WIND       PRES   REMARKS
DEFIANCE       CLOUDY    17   2  51 N13G20    30.28S WCI   4
FINDLAY        CLOUDY    18   2  49 N16       30.26R WCI   3
TOLEDO EXPRESS CLOUDY    15   1  53 N8        30.27F WCI   4
TOLEDO METCALF CLOUDY    17  -1  45 N13G18    30.28S WCI   4
LIMA           CLOUDY    19   6  57 N10       30.24S WCI   7

$$
AND FOR LAKE MICHIGAN COASTAL AND OPEN LAKE BUOY OBSERVATIONS

STATION/POSITION TEMP    WIND        PRES    VSBY  WAVE
                 AIR SEA DIR/SP/G                  HT/PER
                 (F)     (DEG/KT/KT) (MB)    (MI)  (FT/S)
CALUMET HARBOR    14     290/ 10/ 16 1026.5R
MICHIGAN CITY     15     290/ 11/ 13   N/A
SAINT JOSEPH      17     330/ 10/ 15 1026.4F

$$
&&


USA.gov is the U.S. government's official web portal to all federal, state and local government web resources and services.